Phuket, Thailand

1:17 PM +07 on December 15, 2017 (GMT +0700)
Phuket International

Weather History for VTSP - December, 2017

Change the Weather History Date:

Thursday, December 7, 2017

  Actual Average Record
Temperature  
Mean Temperature 81 °F -  
Max Temperature 89 °F 88 °F 93 °F (1998)
Min Temperature 73 °F 74 °F 70 °F (2016)
Cooling Degree Days 16    
Growing Degree Days 31 (Base 50)    
Moisture  
Dew Point 74 °F    
Average Humidity 78    
Maximum Humidity 98    
Minimum Humidity 59    
Precipitation  
Precipitation 4.25 in 0.08 in - ()
Sea Level Pressure  
Sea Level Pressure 29.86 in    
Wind  
Wind Speed 4 mph ()    
Max Wind Speed 13 mph    
Max Gust Speed -    
Visibility 5.0 miles    
Events Rain , Thunderstorm    
Averages and records for this station are not official NWS values.
T = Trace of Precipitation, MM = Missing Value Source: Averaged Metar Reports

Daily Weather History Graph

Daily Weather History Graph

Search for Another Location

Airport or City:

Trip Planner

Search our weather history database for the weather conditions in past years. The results will help you decide how hot, cold, wet, or windy it might be!

Date:

Astronomy

Dec. 07, 2017 Rise Set
Actual Time 6:28 AM +07 6:08 PM +07
Civil Twilight 6:05 AM +07 6:30 PM +07
Nautical Twilight 5:39 AM +07 6:56 PM +07
Astronomical Twilight 5:13 AM +07 7:23 PM +07
Moon 10:03 PM +07 (12/7) 9:54 AM +07 (12/7)
Length of Visible Light 12h 25m
Length of Day
11h 40m
Waning Gibbous, 82% of the Moon is Illuminated
Dec 7
Waning Gibbous
Dec 10
Last Quarter
Dec 18
New
Dec 26
First Quarter
Jan 2
Full

Hourly Weather History & Observations

Time (+07) Temp. Heat Index Dew Point Humidity Pressure Visibility Wind Dir Wind Speed Gust Speed Precip Events Conditions
12:00 AM 78.8 °F - 73.4 °F 83% 29.86 in 5.6 mi Calm Calm - N/A   Scattered Clouds
12:30 AM 78.8 °F - 75.2 °F 89% 29.89 in 5.6 mi Variable 2.3 mph - N/A   Scattered Clouds
1:00 AM 80 °F - 77 °F 89% 29.80 in 6 mi Calm Calm - -   Mist
1:00 AM 78.8 °F - 73.4 °F 83% 29.86 in 5.6 mi East 5.8 mph - N/A   Scattered Clouds
1:30 AM 78.8 °F - 73.4 °F 83% 29.86 in 5.6 mi Variable 1.2 mph - N/A   Scattered Clouds
2:00 AM 78.8 °F - 73.4 °F 83% 29.86 in 5.6 mi ESE 4.6 mph - N/A   Scattered Clouds
2:30 AM 80.6 °F 84.6 °F 71.6 °F 74% 29.86 in 5.6 mi NE 5.8 mph - N/A   Scattered Clouds
3:00 AM 78.8 °F - 73.4 °F 83% 29.86 in 5.6 mi Variable 3.5 mph - N/A   Scattered Clouds
3:30 AM 78.8 °F - 73.4 °F 83% 29.86 in 5.0 mi West 6.9 mph - N/A   Scattered Clouds
4:00 AM 78 °F - 77 °F 94% 29.82 in 5 mi Calm Calm - - Rain Light Rain
4:00 AM 77.0 °F - 73.4 °F 89% 29.86 in 5.0 mi West 9.2 mph - N/A   Scattered Clouds
4:30 AM 77.0 °F - 73.4 °F 89% 29.86 in - Variable 2.3 mph - N/A Rain Light Rain
5:00 AM 77.0 °F - 73.4 °F 89% 29.86 in 5.0 mi Variable 2.3 mph - N/A   Mostly Cloudy
5:30 AM 75.2 °F - 71.6 °F 89% 29.86 in 5.0 mi Variable 2.3 mph - N/A   Mostly Cloudy
6:00 AM 75.2 °F - 71.6 °F 89% 29.86 in 5.0 mi Variable 1.2 mph - N/A   Mostly Cloudy
6:30 AM 75.2 °F - 71.6 °F 89% 29.86 in 5.0 mi Variable 2.3 mph - N/A   Mostly Cloudy
7:00 AM 77 °F - 76 °F 98% 29.80 in 6 mi Calm Calm - -   Mist
7:00 AM 77.0 °F - 73.4 °F 89% 29.86 in 5.0 mi Calm Calm - N/A   Mostly Cloudy
7:30 AM 77.0 °F - 73.4 °F 89% 29.86 in 5.0 mi Calm Calm - N/A   Mostly Cloudy
8:00 AM 78.8 °F - 75.2 °F 89% 29.86 in 5.0 mi East 4.6 mph - N/A   Mostly Cloudy
8:30 AM 82.4 °F 89.5 °F 75.2 °F 79% 29.86 in 5.6 mi East 6.9 mph - N/A   Scattered Clouds
9:00 AM 82.4 °F 88.2 °F 73.4 °F 74% 29.89 in 6.2 mi ENE 9.2 mph - N/A   Scattered Clouds
9:30 AM 84.2 °F 90.9 °F 73.4 °F 70% 29.89 in 6.2 mi East 10.4 mph - N/A   Scattered Clouds
10:00 AM 85 °F - 80 °F 79% 29.81 in 5 mi Calm Calm - -   Mist
10:00 AM 84.2 °F 90.9 °F 73.4 °F 70% 29.89 in 6.2 mi East 9.2 mph - N/A   Scattered Clouds
10:30 AM 86.0 °F 93.4 °F 73.4 °F 66% 29.89 in 6.2 mi ENE 10.4 mph - N/A   Partly Cloudy
11:00 AM 86.0 °F 93.4 °F 73.4 °F 66% 29.89 in 6.2 mi ENE 9.2 mph - N/A   Partly Cloudy
11:30 AM 86.0 °F 93.4 °F 73.4 °F 66% 29.89 in 6.2 mi East 8.1 mph - N/A   Partly Cloudy
12:00 PM 87.8 °F 95.6 °F 73.4 °F 62% 29.86 in 6.2 mi ENE 9.2 mph - N/A   Partly Cloudy
12:30 PM 87.8 °F 95.6 °F 73.4 °F 62% 29.86 in 6.2 mi ENE 9.2 mph - N/A   Partly Cloudy
1:00 PM 89 °F - 78 °F 62% 29.79 in 5 mi Calm Calm - -   Mist
1:00 PM 87.8 °F 95.6 °F 73.4 °F 62% 29.86 in 6.2 mi East 6.9 mph - N/A   Partly Cloudy
1:30 PM 89.6 °F 98.2 °F 73.4 °F 59% 29.83 in 6.2 mi ENE 8.1 mph - N/A   Partly Cloudy
2:00 PM 89.6 °F 98.2 °F 73.4 °F 59% 29.83 in 6.2 mi ENE 8.1 mph - N/A   Partly Cloudy
2:30 PM 89.6 °F 98.2 °F 73.4 °F 59% 29.80 in 6.2 mi East 6.9 mph - N/A   Partly Cloudy
3:00 PM 89.6 °F 98.2 °F 73.4 °F 59% 29.80 in 6.2 mi ESE 5.8 mph - N/A   Scattered Clouds
3:30 PM 89.6 °F 98.2 °F 73.4 °F 59% 29.80 in 6.2 mi East 5.8 mph - N/A   Scattered Clouds
4:00 PM 90 °F - 78 °F 60% 29.73 in 5 mi South 4.6 mph - -   Mist
4:00 PM 89.6 °F 98.2 °F 73.4 °F 59% 29.80 in 6.2 mi Variable 3.5 mph - N/A   Scattered Clouds
4:30 PM 89.6 °F 98.2 °F 73.4 °F 59% 29.80 in 6.2 mi Variable 3.5 mph - N/A   Scattered Clouds
5:00 PM 87.8 °F 95.6 °F 73.4 °F 62% 29.80 in 6.2 mi Variable 2.3 mph - N/A   Scattered Clouds
5:30 PM 86.0 °F 95.1 °F 75.2 °F 70% 29.80 in 6.2 mi West 4.6 mph - N/A   Scattered Clouds
6:00 PM 86.0 °F 95.1 °F 75.2 °F 70% 29.83 in 6.2 mi WSW 4.6 mph - N/A   Scattered Clouds
6:30 PM 84.2 °F 92.3 °F 75.2 °F 74% 29.83 in 5.6 mi WSW 4.6 mph - N/A   Scattered Clouds
7:00 PM 84 °F - 78 °F 77% 29.75 in 4 mi Calm Calm - -   Mist
7:00 PM 80.6 °F 86.2 °F 75.2 °F 84% 29.86 in 5.0 mi North 6.9 mph - N/A   Scattered Clouds
7:11 PM 78.8 °F - 75.2 °F 89% 29.86 in 4.3 mi North 5.8 mph - N/A Rain , Thunderstorm Thunderstorms and Rain
7:30 PM 78.8 °F - 75.2 °F 89% 29.86 in 1.9 mi Variable 3.5 mph - N/A Rain Rain
8:00 PM 78.8 °F - 73.4 °F 83% 29.89 in 3.1 mi West 12.7 mph - N/A Rain Rain
8:30 PM 77.0 °F - 73.4 °F 89% 29.92 in 1.9 mi WNW 8.1 mph - N/A Rain Rain
9:00 PM 75.2 °F - 73.4 °F 94% 29.95 in 1.9 mi NW 6.9 mph - N/A Rain Rain
9:30 PM 75.2 °F - 73.4 °F 94% 29.95 in 1.6 mi Variable 2.3 mph - N/A Rain Rain
10:00 PM 77 °F - 75 °F 92% 29.88 in 1 mi WSW 3.5 mph - - Rain , Thunderstorm Thunderstorms and Rain
10:00 PM 75.2 °F - 73.4 °F 94% 29.95 in 1.9 mi West 5.8 mph - N/A Rain Rain
10:30 PM 75.2 °F - 71.6 °F 89% 29.95 in 1.9 mi SE 3.5 mph - N/A Rain Rain
11:00 PM 73.4 °F - 71.6 °F 94% 29.95 in 3.1 mi SSW 4.6 mph - N/A Rain Rain
11:30 PM 75.2 °F - 71.6 °F 89% 29.95 in 3.1 mi Calm Calm - N/A Rain Rain